Location: *
(51.4660°N, 0.3360°W)
Time: 15:33:31
(UTC+00:00)

Cosmos 676 Rocket - Pass Details

Date: 19 September 2019
Orbit: 755 x 783 km, 74.0° (Epoch: 19 October)

Event Time Altitude Azimuth Distance (km) Brightness Sun altitude
Rises 20:06:18 0° 334° (NNW) 3,265 8.2 -18.6°
Reaches altitude 10° 20:08:42 10° 332° (NNW) 2,329 7.3 -18.9°
Maximum altitude 20:13:58 74° 249° (WSW) 802 4.1 -19.7°
Enters shadow 20:16:51 27° 169° (SSE) 1,439 5.1 -20.0°
